Simultaneous Nadir Overpasses (SNOs) Predictions

Prediction of SNOs between GOES-15 and METOP-B Satellite Orbit:

Table of predicted SNOs for the next 14.0 days since TLE Epoch: 10/12/2018
Index Date Time (GOES-15) GOES-15 Lat,Lon METOP-B Lat,Lon Distance(km) Time Diff (sec)
1 10/13/2018 18:40:22 -0.32,-135.62 0.31,-138.49 326.38 80
2 10/14/2018 18:22:22 -0.31,-135.61 -0.81,-133.50 242.10 80
3 10/16/2018 06:41:22 0.31,-135.54 -0.23,-138.09 289.30 80
4 10/17/2018 06:18:01 0.30,-135.52 0.83,-133.08 278.22 80
5 10/18/2018 18:36:53 -0.31,-135.55 0.15,-137.65 239.12 80
6 10/19/2018 18:18:54 -0.30,-135.53 -0.97,-132.65 328.70 80
7 10/21/2018 06:37:53 0.31,-135.46 -0.06,-137.24 202.80 80
8 10/22/2018 06:14:33 0.30,-135.43 1.00,-132.24 364.04 80
9 10/23/2018 18:33:25 -0.31,-135.44 -0.01,-136.80 154.89 80
10 10/24/2018 18:15:26 -0.31,-135.42 -1.14,-131.81 412.19 80
11 10/26/2018 06:34:24 0.31,-135.34 0.05,-136.39 119.78 80




NCC Satellite Simultaneous Nadir Overpasses (SNOs) Prediction Service
